Wind_Speed
11 12 12 12 12 12 12 11 11 11 11 10 11 12 13 13 14 16 18 21 23 24 23 22 22 22 23 24 26 27 27 27 28 28 28 27 26 26 26 26 27 28 28 28 27 27 26 26 26 25 25 25 25 25 24 24 23 22 22 21 20 20 19 19 19 19 19 18 17 17 16 15 13 13 12 11 10 9 8 8 7 7 6 6 6
9 10 12 13 13 13 12 11 11 11 11 11 12 12 14 15 15 15 16 18 20 23 24 24 23 23 23 24 25 26 26 26 27 28 29 28 27 26 26 26 27 28 29 29 28 28 27 27 26 26 26 26 27 27 27 26 25 24 24 23 23 22 21 20 20 20 20 19 18 17 17 16 15 14 13 12 11 11 10 10 9 9 8 8 8
8 8 9 11 12 13 13 11 11 11 10 10 10 10 11 13 14 15 15 16 18 20 22 23 23 23 22 23 24 25 25 26 26 28 29 28 29 28 27 27 28 28 29 30 30 30 29 28 27 27 26 26 27 28 29 29 28 27 26 25 24 24 23 22 22 21 21 20 19 18 17 17 15 14 14 14 13 12 12 11 11 11 10 10 10
9 8 9 10 11 11 10 9 9 9 8 8 6 5 5 7 8 9 11 13 15 17 19 20 21 22 23 23 24 24 25 25 24 26 27 26 27 28 29 29 29 31 31 30 31 31 31 30 29 28 28 28 28 29 30 30 30 30 29 27 26 26 25 24 23 22 22 21 20 19 18 17 16 16 15 15 14 14 14 13 13 13 12 12 12
10 10 10 9 8 8 7 8 7 7 7 7 4 3 3 4 5 6 7 10 12 14 16 18 19 21 22 23 24 25 26 26 24 25 26 27 27 27 28 28 29 31 32 32 31 32 32 32 32 30 29 29 30 30 30 31 31 31 31 29 28 27 27 26 25 24 23 23 22 20 19 18 17 17 16 16 16 16 16 16 15 15 14 14 14
10 10 10 8 7 7 6 8 8 8 9 8 5 4 4 4 5 5 6 7 9 10 12 15 17 18 19 20 21 23 24 26 25 25 27 28 28 28 28 28 27 28 29 30 31 32 33 34 34 34 32 31 31 31 30 30 30 31 31 31 30 28 28 27 27 26 25 25 23 22 20 19 19 18 18 18 18 18 18 18 17 17 17 17 17
10 10 10 9 8 8 7 7 8 10 10 9 8 7 7 7 7 7 7 6 7 10 14 16 16 16 18 18 19 20 20 22 24 25 26 28 29 29 28 28 28 27 26 27 29 31 32 33 35 35 35 33 32 31 31 30 29 30 30 30 31 30 29 28 28 27 27 27 26 24 22 21 20 20 20 19 20 20 20 20 19 19 19 19 20
10 9 10 10 9 8 8 8 9 10 9 9 8 7 8 8 8 7 7 7 8 11 14 16 16 15 16 18 18 19 19 20 21 23 25 26 29 29 29 29 29 28 27 28 29 31 31 32 34 35 35 34 33 32 31 30 29 29 29 30 30 30 30 29 29 28 28 28 28 27 25 24 23 22 21 21 21 22 22 21 21 21 21 22 22
8 8 8 9 9 8 8 8 11 10 8 9 9 7 7 7 7 7 6 7 9 10 12 15 15 15 16 16 17 18 18 19 21 22 23 24 27 28 28 28 28 27 28 28 28 30 31 32 34 35 35 34 33 32 31 29 29 28 29 29 30 30 30 30 30 29 29 29 29 29 27 27 25 24 23 23 23 23 24 23 23 23 23 24 23
7 7 7 9 9 8 7 8 11 11 9 10 10 8 8 7 7 7 7 7 9 11 13 14 14 14 15 15 15 16 18 19 20 21 22 23 24 25 27 28 28 28 28 27 28 29 30 32 33 34 34 33 32 32 31 30 29 28 28 28 28 29 30 31 31 31 30 30 30 30 29 28 28 26 26 25 25 25 25 25 25 25 25 24 23
8 8 7 8 9 8 7 7 11 13 12 11 11 10 10 9 8 9 9 10 11 12 13 14 14 13 13 13 14 15 17 19 20 22 22 22 23 23 25 25 25 27 29 28 28 30 30 31 32 33 33 33 32 32 32 31 30 28 28 28 28 29 30 32 32 32 31 31 32 31 30 30 29 28 27 27 27 26 26 26 27 27 26 25 24
9 9 8 8 9 9 8 8 11 13 13 12 11 10 11 11 11 11 12 12 13 13 14 14 14 14 13 13 13 14 14 17 19 21 22 22 21 21 22 20 19 23 27 28 29 29 29 29 30 31 32 32 33 33 34 34 32 30 29 29 29 29 30 32 33 33 33 33 33 32 31 31 31 30 29 28 27 27 27 27 28 28 27 26 25
11 10 9 9 10 9 9 9 10 12 13 13 13 13 12 13 13 14 14 15 15 15 15 15 16 16 14 13 13 14 14 14 15 16 19 20 20 21 22 21 21 22 25 27 28 28 27 27 29 29 29 30 31 33 35 36 35 33 32 31 30 29 30 31 31 32 33 33 34 33 33 33 33 32 31 30 29 28 28 28 29 29 28 27 27
12 11 10 10 10 10 10 10 10 11 13 14 15 14 14 15 16 16 16 17 17 17 16 16 17 17 16 15 15 16 16 14 12 12 14 17 20 22 23 23 24 23 24 26 28 29 28 28 28 28 28 28 28 30 33 36 37 35 33 31 30 29 29 30 29 29 31 33 34 35 34 34 34 34 34 33 32 31 31 30 29 29 28 28 28
13 12 12 10 11 11 11 11 11 12 13 14 14 14 14 16 17 17 18 18 18 17 17 18 19 18 17 17 16 17 17 15 13 12 12 13 16 20 22 22 22 22 23 24 26 28 28 28 28 28 27 27 27 29 30 33 36 36 34 33 32 31 31 30 30 30 31 32 34 34 34 34 34 34 34 34 34 33 33 32 31 29 29 28 28
13 13 13 12 11 11 11 11 11 12 13 13 13 14 15 16 17 17 18 19 19 18 19 20 21 20 19 19 18 18 19 17 16 14 13 13 14 17 19 21 21 22 22 24 25 27 27 27 27 27 26 27 28 29 29 30 33 35 35 35 35 35 34 33 33 32 32 33 32 32 33 33 33 33 33 33 33 33 33 33 32 30 29 29 29
13 13 14 13 12 12 12 12 12 12 12 13 13 14 16 16 17 18 19 20 20 20 21 22 23 23 22 22 20 19 19 18 17 16 14 15 16 17 19 20 22 23 24 25 26 27 28 27 27 26 26 27 28 29 29 29 30 33 34 35 36 37 37 37 36 35 34 34 33 32 31 31 31 31 32 33 32 32 32 33 32 30 29 29 29
14 14 14 14 13 13 13 13 13 13 12 13 14 15 16 17 18 19 21 22 22 22 23 24 25 25 23 23 22 21 20 19 19 18 17 17 18 19 20 21 23 24 25 26 27 28 29 28 28 27 27 27 28 29 29 28 28 29 31 32 34 36 38 39 39 38 37 36 36 35 33 31 31 30 29 30 31 31 31 31 31 30 30 29 29
15 15 15 15 14 14 13 13 13 12 13 13 14 15 17 18 19 20 22 23 23 24 24 25 26 26 25 24 24 23 21 20 20 20 20 20 20 20 21 22 23 24 25 25 26 28 29 29 29 29 28 28 29 29 29 29 30 30 29 30 31 32 34 36 39 40 40 39 39 40 38 34 32 30 28 27 28 30 30 30 30 30 29 28 28
15 15 15 15 15 15 14 14 13 13 14 14 15 16 17 18 19 20 21 22 23 24 24 25 26 26 27 27 25 23 22 22 22 22 22 22 22 22 22 24 25 25 26 26 26 26 28 29 30 30 30 30 30 29 28 29 30 31 31 31 31 31 30 31 34 37 39 40 40 40 41 38 35 33 30 29 29 29 29 29 30 30 29 28 27
15 15 15 16 16 16 16 16 15 15 16 16 17 17 18 18 18 19 20 21 22 22 23 24 25 25 26 27 26 25 25 25 24 24 24 24 24 24 24 26 26 26 27 27 26 26 26 27 28 30 31 31 30 29 29 29 30 30 31 32 32 32 30 29 30 33 36 38 37 37 38 40 39 36 34 33 31 29 28 28 29 30 30 29 27
14 15 15 15 16 17 18 18 18 18 17 17 17 17 17 18 18 18 19 19 20 21 21 22 23 24 25 26 26 26 26 25 24 24 24 25 26 25 25 26 27 27 27 27 26 26 26 26 27 28 29 30 30 29 29 29 29 29 29 30 30 30 27 27 30 34 35 36 35 35 35 37 38 37 34 32 32 32 30 28 28 29 29 29 28
14 15 14 15 16 17 18 18 18 18 17 17 17 17 17 17 17 17 18 18 19 19 19 20 21 22 23 24 24 24 25 24 23 23 23 24 25 25 25 25 25 27 27 27 26 26 26 26 26 26 28 29 29 29 28 28 29 28 28 28 29 27 25 27 32 36 36 34 33 34 34 34 35 36 32 30 33 35 34 30 29 30 30 29 29
14 14 14 15 16 17 17 17 17 17 16 16 16 15 15 15 15 16 16 16 16 17 17 18 19 20 20 21 22 23 23 23 23 23 23 23 24 24 24 24 24 25 26 26 26 26 26 25 25 26 27 28 28 28 28 28 27 27 26 26 27 27 27 29 33 35 35 34 32 32 33 34 34 35 34 32 33 34 35 33 31 31 31 31 31
13 14 14 14 15 16 16 16 15 15 15 14 14 14 14 14 14 14 14 14 14 14 15 15 16 17 18 20 21 21 22 22 22 22 22 22 22 22 22 23 23 23 24 24 24 25 25 24 24 25 26 28 29 29 29 28 26 25 25 25 25 25 27 30 32 33 34 34 32 31 32 34 35 35 36 35 34 33 34 34 33 32 32 33 33
12 13 13 14 15 15 16 15 14 13 13 13 13 13 13 13 13 13 13 12 12 12 12 12 13 14 15 16 17 18 19 19 19 19 19 19 19 20 20 20 21 21 21 22 22 23 23 23 23 23 25 26 28 29 29 28 28 27 27 27 27 25 26 28 30 31 31 33 33 32 33 34 35 35 36 36 36 35 35 35 35 35 33 34 34
11 12 12 13 14 15 15 15 14 14 13 13 13 12 12 12 12 12 12 12 12 11 11 11 10 11 11 12 13 14 14 14 15 15 16 16 16 17 16 17 17 17 18 19 20 20 20 21 21 21 22 23 24 26 27 27 28 30 31 30 29 27 26 27 28 29 29 29 31 31 32 33 34 35 36 37 38 37 36 36 37 37 36 36 35
11 11 11 12 12 13 14 14 13 13 13 13 13 13 13 12 12 12 12 12 12 12 11 10 9 9 9 9 10 10 11 11 12 13 14 15 15 15 14 14 14 14 14 16 16 16 16 17 17 18 18 19 20 21 22 23 25 27 29 29 28 27 26 26 27 28 29 30 32 33 33 32 33 34 36 37 38 39 39 39 39 39 39 39 38
11 11 11 11 11 11 12 12 12 12 12 12 12 12 12 12 12 12 13 13 13 13 12 11 10 9 8 8 8 9 9 10 11 11 12 13 13 14 14 13 13 12 12 12 12 12 12 13 13 13 13 14 14 15 17 18 19 21 23 24 24 24 24 24 25 27 29 30 33 35 35 34 34 35 36 37 38 39 41 42 42 42 42 42 43
11 11 12 12 12 12 12 12 12 12 12 12 12 11 11 11 12 12 12 13 13 13 13 12 11 10 9 8 8 8 9 10 11 11 11 11 12 12 12 12 12 11 11 11 10 10 10 10 9 9 10 10 11 12 13 14 15 16 18 19 21 22 23 23 24 25 26 26 27 28 29 31 32 34 36 37 38 40 41 43 44 44 43 44 45
13 13 13 14 14 13 13 13 13 13 13 13 13 13 13 13 13 13 14 14 14 14 14 13 12 11 10 9 9 8 9 9 11 12 12 12 12 12 12 12 12 11 11 10 10 10 10 10 9 8 9 9 10 10 10 11 12 13 15 16 18 19 20 21 22 23 24 25 24 24 24 25 26 28 29 31 32 34 36 38 40 41 42 42 43
14 14 15 15 15 15 15 15 15 15 15 15 15 15 15 14 14 15 15 15 15 15 15 14 13 12 11 11 10 9 9 9 10 11 12 13 13 13 13 13 13 13 12 12 11 11 11 11 11 10 10 10 11 11 11 11 12 13 14 15 16 17 18 19 20 21 22 23 23 24 23 23 23 24 24 24 25 25 27 29 31 34 37 39 40
15 15 16 17 17 17 16 16 16 16 16 16 15 15 14 14 14 14 13 14 14 14 14 13 13 12 11 11 11 11 11 10 10 10 10 11 12 13 14 14 14 14 14 14 14 13 13 13 13 12 12 12 12 12 12 13 13 14 15 15 16 17 18 18 19 20 21 22 23 23 24 24 24 24 24 24 23 23 23 24 25 26 29 32 35
17 17 17 17 17 17 17 17 17 17 17 17 16 15 15 14 14 13 12 12 12 13 13 12 11 10 10 10 11 12 12 12 12 11 11 11 12 12 13 13 14 14 14 15 15 15 15 15 15 15 14 14 14 14 14 14 15 15 15 16 17 18 19 20 20 21 22 22 23 24 25 25 25 26 25 25 25 24 24 24 24 24 24 25 27
18 18 17 17 18 18 18 18 18 19 19 19 18 17 16 16 15 14 12 12 11 12 12 11 10 9 10 12 13 14 15 15 15 15 14 13 14 14 14 14 14 15 16 17 17 17 17 17 17 17 16 16 16 16 16 16 16 16 16 17 17 18 19 20 21 22 23 24 25 25 26 27 28 28 28 28 27 27 26 26 26 25 25 25 25
18 19 18 17 18 19 19 18 19 20 21 20 19 19 18 17 17 16 15 14 13 13 13 12 12 12 13 14 16 17 18 18 18 18 17 17 17 18 18 18 18 19 19 20 20 20 20 20 19 19 19 19 19 19 20 19 19 19 18 18 19 19 19 20 21 22 23 24 25 26 27 28 29 30 30 30 30 30 30 29 29 28 28 27 27
20 20 20 19 19 21 21 20 20 21 22 21 20 20 19 19 18 18 17 17 16 16 15 16 16 16 16 16 16 17 19 19 19 19 19 19 20 21 22 23 23 23 24 24 24 23 23 23 22 22 21 21 21 22 22 22 22 22 21 20 20 20 20 20 21 21 22 24 25 26 27 28 29 30 31 32 32 32 33 33 32 32 31 30 29
22 21 21 20 22 23 23 21 22 24 24 23 22 22 23 23 21 21 20 20 20 20 19 19 20 19 18 17 16 16 17 18 19 19 19 20 21 22 23 24 26 27 27 28 28 27 27 27 26 26 24 24 23 23 23 24 23 23 23 22 21 21 21 22 22 22 22 23 24 25 27 28 29 30 31 32 32 33 34 34 35 35 35 35 34
23 22 21 22 24 26 25 24 24 26 25 25 25 25 25 24 24 24 24 23 23 23 23 23 23 22 21 19 19 19 19 19 20 21 21 22 23 24 25 25 25 26 28 29 30 30 30 30 30 30 29 28 26 25 25 25 25 24 24 24 25 25 25 25 26 26 25 26 26 27 27 28 29 30 30 31 31 32 33 34 35 36 37 37 37
22 22 21 23 24 26 28 28 27 27 29 29 30 29 29 28 27 26 24 23 23 23 24 24 24 24 24 23 23 24 25 26 26 26 27 28 29 29 29 29 28 28 29 29 30 31 32 33 33 33 34 34 33 32 30 30 29 28 28 28 28 29 30 31 32 33 32 32 32 32 32 32 32 32 32 31 32 32 32 33 34 35 36 38 39
21 22 23 25 27 29 30 30 30 31 33 32 30 30 29 29 28 26 24 24 23 24 25 26 27 28 28 27 27 28 29 30 31 32 32 32 33 33 33 33 33 34 33 33 34 34 35 36 37 37 38 39 39 39 38 37 36 36 36 36 36 36 36 37 38 39 39 38 37 38 38 37 36 36 35 34 34 34 33 33 33 34 36 37 39
21 22 24 29 32 31 29 30 33 36 34 28 24 23 23 23 23 23 24 25 25 26 27 28 30 31 31 31 31 31 32 32 33 34 34 34 35 36 35 36 37 38 38 38 40 40 41 41 42 42 42 43 43 43 43 43 42 42 42 42 43 43 42 42 42 44 44 42 41 41 42 41 40 40 40 39 38 38 37 36 35 35 36 37 38
26 26 27 30 32 31 31 32 32 33 31 25 22 22 22 23 23 24 25 26 27 29 30 31 33 34 35 36 36 37 37 37 37 37 37 37 38 39 39 40 41 42 42 43 44 45 45 45 45 45 45 45 45 45 46 46 47 47 47 47 47 47 47 46 46 46 47 47 44 43 44 45 44 43 43 43 43 42 42 42 41 40 39 39 40
31 30 31 33 34 34 35 36 34 33 33 32 31 29 28 28 28 27 27 28 29 31 32 34 35 37 38 39 40 41 42 43 43 43 43 43 43 44 44 45 45 46 46 47 47 46 46 46 47 47 47 47 46 45 46 47 48 48 49 49 49 49 49 49 48 48 49 50 48 46 46 47 47 45 45 46 46 45 46 46 46 46 45 44 43
32 31 32 35 37 37 38 38 39 40 40 40 39 37 34 32 31 30 30 31 32 33 34 35 37 38 40 41 42 42 43 44 45 45 46 46 46 46 46 46 47 47 48 48 48 47 45 46 48 49 49 49 48 47 48 48 49 51 51 51 51 51 51 51 51 51 51 52 52 50 48 49 49 47 48 49 49 49 49 50 50 50 49 49 48
33 33 34 35 37 39 40 41 41 41 40 39 39 38 36 34 33 33 33 33 34 35 36 37 38 39 40 40 41 42 43 44 45 46 47 47 47 47 47 47 47 48 49 49 49 48 48 48 49 50 50 49 49 50 50 51 51 52 53 54 54 54 54 55 55 55 55 55 55 54 51 50 50 49 49 50 51 51 52 53 53 53 53 52 52
35 35 34 34 36 37 38 39 39 40 39 38 36 35 35 35 36 36 36 36 37 37 37 37 38 38 39 39 40 41 43 44 45 46 47 48 48 48 49 49 49 49 50 50 50 50 50 50 50 52 52 52 53 53 54 54 55 55 56 57 58 58 58 58 58 58 58 58 59 58 55 53 52 52 51 52 53 53 54 56 57 56 56 55 55
38 37 36 36 37 37 37 38 38 40 40 39 37 36 36 37 38 39 40 40 40 39 38 38 38 38 39 40 40 41 43 44 45 47 47 48 49 49 50 50 51 52 52 52 51 51 51 51 52 54 55 56 57 58 58 59 59 59 60 61 62 62 62 61 60 60 59 59 60 61 59 57 56 55 55 55 55 55 56 57 58 58 59 58 58
42 41 40 40 39 39 39 39 39 41 42 41 41 40 40 41 41 41 41 41 41 41 40 39 39 40 40 41 41 42 43 44 45 46 47 48 49 50 51 51 52 52 52 53 53 52 52 51 52 53 55 56 57 58 59 59 60 61 61 62 63 63 63 63 62 61 61 61 61 62 61 60 59 59 58 58 58 58 59 59 59 60 60 60 60
45 45 44 43 43 43 42 42 42 43 44 44 44 44 44 43 42 41 40 41 41 41 41 41 42 42 43 43 44 44 44 45 45 46 47 48 48 49 50 50 51 51 51 51 51 51 51 51 52 52 53 54 56 57 58 59 59 60 61 62 63 63 63 63 63 63 62 62 63 64 63 62 62 62 61 61 60 61 61 61 61 61 61 61 61
47 48 47 46 45 45 44 44 44 45 45 46 46 46 45 43 42 41 41 41 42 43 44 45 46 46 46 46 46 47 47 47 47 47 47 47 48 48 48 48 48 48 48 48 49 49 50 51 51 52 52 53 54 55 57 58 59 60 60 61 62 63 63 63 63 63 63 63 65 66 65 64 64 64 64 63 62 62 63 63 63 63 63 63 63
Wind_Direction
294 290 286 281 279 282 283 281 274 261 251 251 252 248 247 249 251 250 247 244 244 245 245 245 244 242 238 235 233 232 233 233 233 234 236 238 238 238 238 236 235 239 243 247 249 251 251 252 253 253 252 251 251 252 254 255 256 257 257 258 258 256 254 249 246 244 241 239 237 237 238 238 238 239 241 244 249 253 258 265 272 277 283 290 296
295 292 288 282 279 277 279 281 269 251 243 247 252 254 256 257 256 255 251 246 244 244 244 245 245 243 240 236 234 233 233 234 236 238 238 239 241 242 241 240 238 238 241 245 247 249 251 252 253 254 254 253 252 251 252 254 255 255 255 256 257 257 256 253 250 248 246 244 242 241 242 242 242 243 243 245 248 251 255 260 265 271 277 283 288
289 288 288 286 284 280 276 275 261 243 236 240 247 253 256 256 254 253 250 247 244 244 245 246 245 243 239 236 235 234 234 235 236 239 241 240 242 244 245 245 244 242 241 243 245 247 249 251 252 254 255 254 252 251 251 252 253 254 253 253 255 256 255 254 252 250 249 247 246 245 245 245 245 246 247 247 248 251 254 259 263 267 272 277 282
283 279 286 290 291 286 277 269 257 239 228 219 216 225 237 244 245 245 245 244 245 245 245 246 246 244 240 237 235 235 237 239 237 238 241 242 241 243 245 247 248 247 245 244 245 247 248 250 251 251 252 252 251 251 250 250 251 252 253 252 252 254 254 254 253 252 250 249 248 247 247 248 248 248 249 250 251 253 256 260 264 268 271 275 279
285 282 288 291 294 298 280 266 258 235 220 205 185 192 216 229 233 235 238 240 243 245 245 246 246 245 243 240 238 239 241 245 243 240 242 243 243 243 245 248 251 252 248 246 247 248 249 249 250 250 250 250 251 251 251 250 251 252 253 254 253 254 255 255 254 254 253 251 249 247 246 247 249 249 250 252 254 256 259 262 265 268 272 275 278
288 288 296 292 292 304 285 259 253 238 229 225 222 229 235 237 235 230 231 233 237 244 250 251 250 245 244 243 243 243 243 243 243 242 242 243 244 246 248 250 254 256 250 245 247 250 250 250 250 249 249 249 251 252 254 254 253 253 253 254 254 254 255 255 255 255 255 253 252 250 247 246 247 249 251 253 256 258 260 263 266 269 272 275 278
291 291 297 293 289 297 285 258 245 238 238 246 251 251 244 239 233 227 226 225 229 245 255 255 254 249 245 244 244 245 244 243 241 240 241 242 243 246 249 250 252 254 252 248 248 250 252 251 250 249 249 249 250 252 254 255 255 254 254 253 253 253 254 255 255 255 256 255 254 253 250 248 248 249 250 253 257 259 261 263 266 270 273 276 279
291 291 294 292 287 286 280 261 240 231 240 257 257 246 238 235 234 232 231 232 237 248 254 253 252 252 250 248 247 248 247 247 245 242 241 241 243 244 246 249 250 250 250 249 250 252 253 254 253 250 249 249 250 251 253 255 255 255 254 253 252 252 252 254 254 255 255 256 256 255 253 252 251 250 251 253 257 260 262 263 265 269 273 277 279
286 287 288 284 282 277 274 265 244 231 241 244 229 223 229 232 237 242 242 241 244 248 251 253 254 256 257 255 254 254 254 252 250 247 244 243 243 242 243 246 249 250 249 249 251 254 256 257 256 254 252 251 250 250 251 253 254 253 253 252 251 251 250 251 252 253 253 254 256 256 255 254 254 253 253 255 257 260 263 265 266 269 273 276 278
279 279 277 274 275 272 265 258 238 232 246 235 217 220 227 227 236 245 251 245 243 248 252 255 256 255 257 258 259 261 262 261 259 254 249 247 244 242 242 243 246 249 249 248 249 251 254 255 256 256 254 252 251 249 250 251 252 252 251 250 250 249 249 249 249 251 252 252 254 255 255 255 256 256 257 257 257 260 263 266 267 269 272 274 274
273 267 266 265 269 270 262 249 233 235 250 239 224 227 224 227 241 245 251 250 246 249 252 255 254 254 256 260 263 264 265 266 265 260 253 248 248 247 245 243 246 249 248 246 246 248 251 253 255 255 254 252 249 246 246 247 249 250 250 248 248 248 248 248 248 248 250 251 252 254 255 255 256 257 258 259 259 260 262 265 266 268 270 271 270
271 262 259 253 257 265 262 252 237 237 245 238 229 226 221 229 240 244 249 249 249 251 254 258 259 259 259 261 263 263 265 271 272 262 249 244 245 245 243 238 238 246 247 244 245 247 250 252 253 255 255 253 249 244 241 242 244 247 248 248 247 246 246 247 247 247 249 251 253 255 256 256 256 257 258 259 260 260 261 263 264 266 267 268 269
274 265 256 248 249 256 260 257 245 237 236 232 229 227 227 232 235 242 247 248 251 253 256 262 265 264 264 263 262 261 263 274 280 262 242 238 240 238 237 235 234 242 244 243 245 248 251 253 254 255 255 255 253 248 243 241 241 243 246 248 249 249 248 248 248 248 249 251 254 256 257 257 256 256 257 259 260 261 261 262 263 264 266 267 269
275 270 261 252 248 248 250 252 249 240 234 233 233 230 230 232 233 239 246 249 251 254 259 262 264 267 267 264 261 259 261 269 280 269 248 245 241 234 234 239 241 244 244 243 245 248 251 254 255 255 255 255 254 251 247 245 244 244 246 248 251 252 252 251 251 250 250 251 253 255 256 257 258 258 258 258 260 260 261 262 263 263 264 265 267
272 269 264 257 252 250 247 243 241 240 238 237 238 236 234 235 237 240 244 250 252 254 259 262 265 268 267 263 258 256 257 258 264 266 260 256 247 236 235 240 244 246 247 248 249 250 251 253 255 256 257 258 256 253 252 250 247 247 249 251 251 252 252 252 251 250 250 251 252 254 255 256 257 258 259 258 258 258 259 261 261 261 262 262 264
268 264 260 254 251 251 251 246 240 239 238 238 239 240 241 242 244 245 248 252 254 255 258 261 265 266 265 263 258 254 254 255 257 258 256 255 253 245 242 245 248 251 253 255 256 256 256 255 256 258 260 261 261 259 258 255 251 248 249 252 252 252 252 251 250 249 250 251 251 252 254 255 255 255 256 256 256 255 256 257 258 259 259 259 261
269 263 257 252 246 245 246 246 243 240 238 238 239 241 244 246 248 251 253 255 256 257 258 260 262 263 265 265 261 256 255 257 259 258 257 257 258 255 252 252 254 256 257 258 259 260 260 259 259 260 260 261 262 262 261 260 256 250 249 252 252 252 253 253 252 252 252 253 254 254 254 255 254 252 253 255 255 253 253 254 255 256 257 257 258
274 267 261 255 250 246 243 242 241 242 242 241 242 245 246 248 250 251 253 255 256 257 258 259 261 264 264 262 262 261 260 260 259 259 261 261 261 260 260 260 259 259 258 258 258 259 260 260 259 259 258 258 258 259 259 258 257 252 250 252 252 252 253 253 254 255 256 256 258 258 256 256 256 254 253 255 254 252 251 252 253 254 255 255 257
280 274 268 261 255 250 246 243 243 243 244 245 246 249 251 252 254 254 255 257 258 258 259 259 261 264 264 264 267 266 263 261 259 259 261 261 260 262 264 266 266 265 264 262 260 259 259 259 258 258 257 257 256 256 256 256 255 254 253 253 253 253 253 254 255 257 257 257 257 257 257 258 258 258 259 257 254 251 250 250 251 252 253 254 256
277 275 271 265 259 254 249 246 245 244 245 246 247 248 250 252 254 257 258 259 260 260 261 261 262 264 266 268 268 265 262 262 261 261 262 262 262 262 265 268 270 270 268 267 266 264 262 259 258 257 257 257 257 257 257 257 257 257 257 257 257 256 256 256 256 256 256 255 255 255 256 256 256 257 259 257 254 251 249 248 249 251 251 253 254
271 266 263 261 256 250 247 243 241 241 241 242 244 246 248 251 253 255 257 258 260 261 261 262 263 265 266 267 267 265 265 267 267 266 265 265 264 264 265 267 269 270 269 269 269 269 267 264 260 258 257 257 257 257 258 259 259 258 258 258 258 258 258 259 261 260 258 256 254 253 253 254 253 253 253 253 253 252 251 249 250 251 251 251 253
271 262 256 252 248 243 240 238 237 237 238 239 242 244 247 250 253 254 256 257 259 260 260 261 262 263 264 266 267 269 270 271 271 269 267 266 267 268 266 265 267 268 269 269 270 270 270 268 265 260 257 257 257 258 258 259 259 259 258 257 258 257 256 260 264 265 263 258 253 250 250 251 251 252 254 255 255 254 252 251 251 253 253 253 252
271 263 255 250 245 240 236 235 235 235 236 238 240 243 245 247 250 252 254 256 258 259 260 261 263 264 265 266 268 269 271 272 271 269 268 267 268 269 268 266 265 267 268 269 269 269 269 269 267 262 258 256 256 257 258 260 261 261 259 258 258 254 250 253 258 261 263 262 257 252 251 253 254 254 257 259 258 255 254 253 252 253 256 257 254
268 263 257 253 248 243 238 235 234 234 236 238 239 241 242 244 246 249 251 255 258 260 261 263 266 267 268 269 269 270 270 271 271 271 270 269 269 269 269 267 266 265 267 268 268 268 268 267 265 262 258 255 255 256 258 262 263 260 257 257 258 253 246 246 251 255 260 263 262 256 252 254 255 254 254 255 257 258 258 258 257 255 256 258 257
265 261 257 255 252 248 244 239 236 236 236 238 239 240 240 240 241 244 247 252 257 262 266 269 271 273 274 273 273 273 273 273 273 272 271 270 270 270 270 270 269 267 266 267 268 267 267 266 264 261 258 255 254 255 257 261 261 257 256 259 262 258 248 245 249 252 256 260 264 261 254 253 254 254 254 254 256 259 259 257 257 255 253 254 255
260 257 254 254 253 250 247 243 240 240 240 240 241 242 242 241 239 239 241 245 251 256 263 268 272 275 277 278 279 278 277 276 275 274 273 272 272 273 272 272 272 270 269 268 268 268 268 267 264 261 258 256 255 255 256 258 257 256 258 262 267 266 254 246 246 248 251 256 261 262 260 258 258 257 256 254 255 259 259 255 254 253 251 253 256
254 254 253 253 254 253 250 246 242 241 241 241 241 241 241 241 240 238 238 241 244 248 254 260 265 270 274 279 283 286 287 288 287 285 284 281 280 280 280 279 279 278 275 273 270 270 269 268 266 264 261 259 257 257 256 256 256 257 260 263 265 266 260 252 249 248 250 252 255 259 262 262 262 261 258 256 256 257 258 255 254 254 253 254 255
250 252 254 254 256 257 255 251 247 245 246 245 245 244 242 240 239 238 239 241 243 246 249 254 260 267 274 281 286 293 298 299 300 299 296 293 291 291 291 290 289 288 285 282 279 276 272 271 270 267 265 263 261 260 259 258 258 258 260 263 263 262 260 258 256 255 254 253 253 255 259 261 261 260 259 259 259 259 257 257 257 258 257 255 253
246 248 251 253 254 255 255 253 251 249 249 249 250 251 251 249 247 245 245 245 247 249 251 254 258 262 271 280 287 293 297 298 298 297 296 296 296 297 298 298 297 296 293 291 290 288 283 279 278 275 271 269 266 264 263 261 260 259 260 261 261 260 259 260 260 261 261 260 257 255 256 257 257 256 256 257 258 259 258 258 259 260 260 258 257
245 247 248 251 252 253 253 252 251 250 249 248 249 252 255 258 259 259 258 257 256 255 256 257 259 261 263 268 275 281 287 290 290 289 289 290 291 293 295 296 297 297 295 293 292 292 291 288 286 284 281 277 274 271 270 266 264 261 260 260 260 260 260 261 261 263 266 268 267 264 262 260 259 258 257 257 258 260 261 261 263 263 262 261 260
244 248 249 250 252 253 253 252 251 251 250 249 249 250 252 254 257 259 261 262 263 262 262 263 263 266 268 269 271 273 277 281 284 286 285 285 285 285 286 287 287 287 285 284 282 281 281 281 280 279 277 277 277 276 276 276 274 271 267 265 263 262 262 263 264 264 267 271 273 273 272 270 267 265 264 263 263 265 267 268 269 268 266 264 263
248 250 251 251 252 253 254 256 256 255 253 251 251 252 254 255 256 256 257 258 259 260 261 263 263 266 269 272 275 276 276 277 280 284 286 287 287 286 285 283 281 280 277 275 274 270 269 270 272 272 272 272 273 273 272 274 277 278 276 274 272 271 269 269 269 269 269 271 272 274 276 276 275 274 273 273 273 273 275 276 276 274 271 268 266
260 256 254 253 254 255 256 258 257 255 254 252 252 253 255 256 255 256 256 256 257 258 259 259 260 261 265 269 273 275 275 275 276 281 285 286 286 286 285 284 282 280 277 274 271 268 266 264 264 265 268 270 272 272 272 272 273 276 277 278 278 278 278 278 278 278 276 276 276 276 277 278 278 278 278 278 279 280 281 282 282 280 277 273 269
268 263 258 257 259 260 261 262 260 258 256 254 253 253 252 251 249 249 252 257 262 263 262 260 258 261 270 277 281 282 280 279 278 280 283 283 281 280 280 280 282 282 280 278 275 272 270 267 266 266 267 269 270 271 272 272 272 272 274 277 279 281 282 282 283 283 282 282 281 280 280 279 279 279 279 280 281 282 283 284 285 285 283 279 274
266 263 261 261 263 264 264 265 266 268 266 261 257 254 250 248 245 244 250 260 266 266 264 262 263 271 283 289 291 291 290 288 285 283 282 280 278 276 275 274 276 278 279 279 278 276 273 269 267 266 265 265 265 266 267 268 269 270 270 271 273 276 279 281 283 283 283 283 283 282 282 281 281 281 281 281 281 282 283 283 285 285 286 285 284
265 263 263 264 265 266 265 263 265 267 269 267 264 260 255 249 246 246 251 259 264 263 261 261 266 275 285 291 291 289 286 285 285 283 281 279 276 274 272 270 270 272 273 275 276 276 276 273 270 267 266 264 264 264 265 264 265 266 267 268 269 269 271 273 276 279 280 281 281 281 281 282 282 282 282 282 283 283 284 284 284 284 285 285 285
262 262 262 261 261 263 262 260 257 255 258 261 262 261 258 254 251 251 254 258 261 262 262 262 266 272 280 287 289 286 281 277 275 276 278 279 278 276 274 272 271 271 271 271 272 274 276 277 275 274 273 272 270 269 268 267 267 266 266 266 267 269 270 270 270 273 275 277 278 279 279 279 280 280 280 281 281 282 283 283 284 284 283 282 282
258 259 260 261 261 261 261 260 254 250 251 253 255 257 258 257 256 256 258 261 263 264 263 263 265 269 274 278 281 281 279 275 270 269 271 274 277 277 276 276 274 273 272 271 271 271 272 274 275 275 275 276 275 273 270 269 269 269 270 270 269 271 274 275 275 275 275 276 276 276 276 276 276 277 277 278 278 278 279 279 280 281 282 281 280
261 262 263 264 265 263 264 263 256 250 250 251 250 253 255 256 259 261 261 262 265 266 266 266 268 271 274 273 271 271 272 271 269 268 269 272 274 276 277 277 276 275 273 272 271 270 270 271 272 272 273 275 276 275 272 269 267 268 271 274 276 277 279 281 282 282 281 281 280 280 278 277 276 275 274 274 275 275 276 276 277 278 279 279 279
261 263 263 265 266 264 264 265 260 255 255 254 252 252 253 257 261 263 260 261 265 268 269 272 275 278 279 277 273 272 272 273 272 271 270 272 273 273 274 275 274 274 274 273 271 270 269 269 270 271 273 275 276 276 275 272 270 269 269 271 275 278 282 284 286 286 286 286 286 286 284 281 279 277 275 274 273 273 273 274 276 276 276 277 277
259 263 267 267 266 263 260 259 257 254 254 253 251 249 250 254 258 257 256 260 267 272 274 277 279 281 282 280 276 275 275 275 275 274 273 273 273 273 273 273 273 273 273 273 272 271 270 269 270 271 273 274 274 273 273 272 271 271 271 271 272 274 278 281 284 284 284 285 286 286 285 284 282 280 278 277 275 274 273 273 273 274 275 275 275
257 262 265 264 263 261 256 251 246 243 243 243 242 240 242 246 250 252 256 262 268 273 276 278 280 282 282 281 279 276 275 274 274 274 273 273 274 274 275 275 274 274 274 273 272 272 271 271 271 272 272 272 272 272 271 270 269 269 270 271 272 273 274 276 280 281 280 281 282 281 281 282 282 281 280 280 278 277 276 274 273 272 272 273 273
259 258 260 262 264 262 260 257 251 246 245 248 252 252 251 251 253 257 262 266 270 273 276 277 279 280 280 280 278 277 276 276 275 275 274 274 274 275 276 276 276 276 276 275 274 273 272 272 271 271 271 271 271 271 270 269 269 268 269 269 270 271 271 272 275 276 277 279 279 278 277 278 279 279 279 279 279 278 278 277 276 275 273 271 271
261 260 261 264 266 264 263 264 264 262 263 266 269 269 264 260 260 264 269 272 274 275 276 276 277 277 277 276 275 275 275 276 276 277 277 277 277 276 276 276 276 276 276 276 276 275 274 272 271 270 270 269 269 269 269 269 269 268 269 270 271 271 271 271 272 272 274 275 276 275 273 274 276 277 276 276 277 277 277 276 276 275 274 273 272
262 263 262 263 265 266 266 267 269 272 273 274 276 275 272 268 267 270 274 276 276 276 275 275 275 275 275 275 276 276 277 278 279 279 279 279 279 278 278 277 277 277 276 276 276 275 273 273 272 271 270 269 268 268 268 269 269 269 269 270 271 271 271 271 271 271 272 273 274 273 270 269 271 273 272 272 274 275 275 275 275 274 274 273 271
262 264 265 265 264 265 267 269 272 275 276 275 274 274 274 272 271 271 273 274 276 277 277 278 278 279 279 280 280 280 280 281 281 281 281 282 282 282 282 281 281 280 280 279 278 276 275 273 273 271 270 270 269 269 269 269 269 269 270 270 270 270 270 271 271 271 271 272 273 273 270 267 267 269 269 269 270 271 272 273 273 273 273 272 271
260 262 266 267 266 266 267 270 272 274 274 274 272 271 271 271 271 271 272 273 275 278 281 284 285 286 286 285 284 283 281 281 280 281 281 282 283 284 284 284 284 283 282 282 281 280 278 276 274 272 272 271 271 271 271 270 270 270 270 269 269 270 270 270 270 271 271 271 272 272 270 267 266 267 268 267 267 268 268 269 269 270 270 271 270
260 262 265 267 268 268 268 269 270 270 270 270 270 270 270 273 274 275 275 276 277 279 283 287 290 291 291 289 287 285 283 281 280 280 280 281 281 282 282 283 283 284 284 283 283 282 281 279 277 276 274 274 273 273 273 272 272 271 270 270 270 269 269 269 269 269 269 269 270 270 269 268 266 266 267 266 266 266 266 266 266 267 267 268 268
260 264 267 268 268 268 267 267 268 267 267 267 268 269 273 278 280 280 280 279 279 280 283 287 292 294 294 292 289 286 284 282 281 280 280 280 280 281 281 282 282 283 283 284 284 284 283 282 280 279 278 277 276 275 275 274 273 272 271 270 270 270 269 269 268 268 267 267 267 267 267 267 266 266 266 266 266 266 265 265 265 265 265 265 265
263 267 270 271 270 268 266 266 266 265 265 266 267 270 275 280 281 282 283 282 281 281 283 288 292 295 295 294 292 289 286 284 283 282 282 281 281 281 281 281 282 282 283 284 284 285 284 284 283 281 280 279 279 278 277 275 274 272 271 270 269 269 268 268 267 267 266 266 266 266 266 266 266 266 265 265 264 265 265 265 264 264 264 263 263
265 269 271 271 268 266 265 265 265 265 265 267 269 272 277 279 280 281 282 283 283 284 286 289 292 294 295 295 294 292 289 287 286 285 285 284 283 283 282 282 283 283 284 284 285 285 285 285 285 284 283 281 280 279 277 276 275 273 272 271 269 269 268 267 267 266 265 265 266 266 265 265 266 266 265 264 263 263 264 264 264 264 264 263 263
Height
5791 5791 5791 5791 5791 5791 5791 5790 5790 5791 5791 5792 5793 5793 5794 5794 5795 5796 5796 5797 5798 5800 5802 5805 5806 5808 5808 5809 5809 5809 5809 5810 5810 5811 5811 5812 5813 5814 5816 5817 5819 5820 5820 5821 5822 5823 5824 5825 5826 5827 5828 5829 5831 5832 5833 5834 5835 5836 5837 5838 5839 5840 5841 5842 5843 5843 5844 5845 5845 5846 5846 5847 5848 5848 5849 5850 5851 5851 5852 5852 5852 5852 5853 5853 5853
5790 5790 5790 5789 5789 5789 5789 5789 5789 5789 5790 5790 5791 5791 5792 5793 5793 5794 5794 5795 5796 5797 5799 5802 5804 5805 5806 5806 5807 5807 5808 5808 5809 5809 5810 5810 5811 5812 5814 5815 5816 5817 5818 5819 5820 5820 5821 5822 5823 5825 5826 5827 5828 5829 5831 5832 5833 5834 5835 5836 5837 5838 5839 5840 5841 5842 5843 5843 5844 5844 5845 5845 5846 5847 5847 5848 5849 5849 5850 5850 5851 5851 5851 5852 5852
5789 5789 5789 5788 5788 5788 5787 5787 5787 5787 5787 5788 5789 5790 5790 5790 5791 5792 5792 5793 5794 5796 5797 5799 5801 5802 5803 5804 5804 5805 5806 5807 5808 5807 5807 5809 5809 5810 5812 5813 5814 5815 5816 5817 5817 5818 5819 5820 5821 5822 5823 5824 5826 5827 5828 5829 5830 5831 5833 5834 5835 5836 5837 5838 5839 5840 5841 5842 5843 5843 5843 5844 5844 5845 5846 5846 5847 5847 5848 5849 5849 5850 5850 5850 5851
5788 5788 5787 5787 5787 5786 5786 5786 5786 5786 5786 5786 5787 5788 5788 5789 5789 5790 5791 5792 5793 5794 5795 5796 5798 5799 5800 5801 5802 5803 5803 5804 5805 5805 5805 5806 5807 5808 5809 5810 5811 5813 5814 5815 5815 5816 5816 5817 5818 5819 5820 5821 5822 5824 5825 5826 5827 5828 5830 5831 5832 5833 5835 5835 5836 5838 5839 5840 5841 5842 5842 5842 5843 5843 5844 5844 5845 5845 5846 5847 5847 5848 5848 5849 5849
5786 5786 5785 5785 5785 5785 5785 5786 5786 5786 5786 5786 5786 5787 5787 5787 5788 5789 5790 5791 5792 5792 5793 5794 5794 5795 5797 5798 5799 5800 5801 5801 5802 5802 5803 5804 5804 5805 5806 5808 5809 5810 5811 5812 5813 5813 5814 5815 5815 5816 5817 5818 5819 5820 5822 5823 5824 5825 5827 5829 5830 5831 5832 5833 5834 5835 5836 5837 5838 5840 5840 5841 5841 5842 5842 5843 5843 5844 5844 5844 5845 5846 5846 5847 5847
5784 5784 5784 5784 5784 5784 5784 5784 5785 5785 5785 5785 5786 5786 5786 5786 5787 5788 5789 5790 5791 5791 5791 5791 5791 5793 5794 5796 5797 5797 5798 5798 5799 5800 5800 5801 5802 5803 5804 5805 5806 5807 5807 5808 5810 5810 5811 5812 5813 5813 5814 5815 5816 5817 5819 5820 5821 5822 5824 5826 5827 5829 5830 5831 5832 5833 5834 5835 5836 5837 5838 5839 5839 5840 5840 5841 5841 5842 5842 5842 5843 5844 5844 5845 5845
5782 5782 5782 5782 5783 5783 5783 5783 5783 5783 5783 5784 5786 5786 5786 5786 5786 5787 5788 5789 5789 5788 5788 5788 5789 5790 5792 5793 5794 5795 5795 5796 5796 5797 5798 5798 5799 5800 5801 5802 5803 5803 5804 5805 5806 5807 5808 5809 5809 5810 5811 5812 5813 5815 5816 5818 5819 5820 5821 5822 5824 5826 5827 5829 5830 5831 5831 5832 5833 5834 5835 5836 5837 5838 5838 5839 5839 5839 5840 5840 5841 5841 5842 5843 5843
5781 5781 5781 5781 5781 5781 5781 5781 5782 5782 5784 5785 5786 5786 5786 5786 5786 5786 5787 5787 5787 5786 5786 5787 5788 5789 5789 5790 5791 5792 5793 5794 5795 5795 5796 5796 5796 5797 5798 5799 5799 5800 5801 5801 5802 5803 5805 5806 5807 5807 5808 5809 5810 5812 5813 5815 5816 5817 5818 5819 5821 5822 5824 5825 5827 5828 5829 5829 5830 5832 5832 5833 5834 5835 5836 5836 5837 5837 5838 5838 5839 5839 5840 5840 5841
5780 5779 5779 5780 5780 5780 5780 5780 5781 5782 5783 5784 5784 5785 5786 5786 5786 5785 5785 5786 5785 5784 5785 5785 5786 5786 5787 5788 5789 5790 5791 5791 5792 5793 5793 5793 5793 5794 5795 5795 5796 5797 5797 5798 5800 5801 5802 5803 5804 5804 5805 5806 5808 5809 5811 5812 5813 5814 5815 5816 5817 5819 5820 5822 5823 5825 5826 5827 5827 5828 5829 5830 5831 5832 5833 5834 5834 5835 5835 5836 5837 5837 5838 5838 5839
5779 5778 5778 5778 5778 5779 5779 5779 5780 5781 5782 5782 5783 5784 5784 5785 5785 5785 5785 5785 5784 5783 5783 5784 5784 5785 5786 5786 5787 5787 5788 5788 5789 5789 5790 5790 5791 5792 5792 5792 5793 5793 5794 5795 5797 5798 5799 5799 5800 5801 5802 5803 5805 5807 5808 5809 5810 5811 5812 5813 5814 5815 5816 5818 5819 5821 5822 5823 5824 5825 5826 5827 5828 5829 5830 5831 5831 5832 5832 5833 5834 5835 5835 5836 5836
5778 5778 5777 5777 5777 5777 5778 5778 5778 5779 5780 5780 5781 5782 5782 5783 5784 5784 5784 5784 5784 5783 5783 5782 5783 5783 5784 5785 5785 5786 5786 5786 5786 5786 5787 5787 5788 5789 5789 5789 5790 5790 5791 5792 5793 5794 5795 5796 5797 5798 5799 5800 5802 5803 5804 5805 5806 5808 5808 5809 5810 5811 5812 5814 5815 5817 5818 5819 5820 5822 5823 5824 5825 5826 5827 5828 5828 5829 5830 5830 5831 5832 5832 5833 5834
5776 5776 5776 5776 5776 5776 5776 5777 5777 5778 5778 5779 5779 5780 5781 5781 5782 5782 5783 5783 5783 5783 5782 5781 5781 5782 5783 5784 5784 5784 5785 5784 5783 5783 5784 5785 5786 5787 5786 5786 5787 5787 5788 5789 5790 5791 5792 5793 5794 5795 5795 5796 5797 5798 5799 5800 5802 5803 5804 5805 5806 5807 5808 5809 5811 5812 5814 5815 5817 5818 5820 5821 5822 5823 5824 5824 5825 5826 5827 5828 5828 5829 5830 5830 5831
5775 5775 5775 5775 5775 5775 5775 5775 5776 5777 5777 5778 5779 5780 5780 5780 5781 5781 5781 5781 5782 5781 5781 5780 5780 5780 5781 5782 5783 5783 5782 5782 5781 5780 5781 5782 5784 5784 5784 5785 5785 5785 5786 5787 5788 5789 5790 5790 5791 5791 5792 5793 5794 5794 5795 5796 5798 5799 5800 5802 5803 5805 5805 5806 5808 5810 5811 5813 5814 5815 5816 5817 5818 5819 5820 5821 5822 5823 5824 5824 5825 5826 5827 5827 5828
5773 5773 5773 5774 5774 5774 5774 5774 5775 5776 5776 5777 5778 5779 5779 5780 5780 5780 5780 5780 5780 5780 5780 5780 5779 5779 5780 5781 5781 5781 5780 5780 5779 5779 5779 5780 5781 5782 5783 5783 5783 5784 5784 5785 5786 5787 5788 5788 5788 5788 5789 5790 5790 5791 5792 5793 5795 5796 5798 5799 5801 5803 5803 5804 5806 5807 5808 5809 5810 5811 5812 5813 5814 5815 5816 5817 5818 5819 5820 5821 5822 5823 5823 5824 5825
5772 5772 5772 5772 5772 5772 5773 5773 5774 5775 5775 5776 5777 5777 5778 5779 5779 5779 5779 5780 5780 5780 5780 5779 5778 5778 5778 5779 5779 5779 5779 5778 5778 5778 5778 5778 5779 5780 5781 5782 5782 5782 5783 5783 5784 5784 5785 5786 5786 5786 5787 5788 5788 5788 5789 5791 5792 5794 5796 5796 5798 5799 5799 5801 5802 5803 5804 5805 5806 5807 5808 5809 5810 5811 5812 5813 5814 5815 5816 5817 5818 5819 5820 5821 5821
5771 5772 5772 5771 5771 5771 5772 5772 5773 5773 5774 5774 5775 5776 5777 5777 5778 5778 5778 5778 5778 5779 5778 5778 5777 5776 5776 5776 5777 5777 5777 5777 5777 5777 5778 5778 5778 5779 5780 5781 5781 5781 5781 5781 5782 5782 5783 5784 5784 5785 5786 5786 5785 5785 5786 5788 5789 5791 5793 5793 5794 5794 5795 5796 5798 5799 5799 5799 5801 5802 5803 5804 5805 5807 5808 5808 5810 5811 5812 5813 5813 5814 5816 5817 5817
5769 5770 5770 5770 5770 5770 5771 5771 5771 5772 5772 5773 5774 5775 5775 5776 5776 5776 5776 5777 5777 5777 5777 5776 5775 5774 5774 5774 5774 5775 5775 5776 5776 5776 5777 5777 5777 5778 5779 5780 5780 5780 5780 5780 5780 5780 5780 5781 5782 5783 5783 5783 5783 5783 5783 5784 5785 5787 5788 5789 5790 5790 5791 5792 5793 5795 5795 5796 5797 5798 5799 5800 5800 5802 5803 5804 5805 5807 5808 5808 5809 5810 5812 5813 5814
5767 5768 5768 5768 5769 5769 5770 5770 5770 5770 5771 5771 5772 5773 5773 5773 5774 5774 5774 5775 5775 5775 5775 5774 5773 5773 5773 5772 5772 5773 5773 5774 5774 5775 5775 5775 5776 5776 5777 5778 5778 5778 5777 5778 5778 5777 5777 5778 5779 5780 5780 5779 5779 5779 5780 5781 5782 5783 5784 5785 5785 5786 5787 5788 5789 5791 5792 5793 5794 5795 5796 5796 5796 5797 5799 5800 5801 5802 5803 5804 5805 5806 5808 5809 5810
5765 5765 5766 5766 5766 5767 5767 5768 5768 5768 5769 5769 5770 5770 5771 5771 5772 5772 5772 5773 5773 5773 5773 5772 5772 5771 5771 5770 5771 5771 5772 5772 5773 5773 5773 5773 5773 5774 5775 5775 5775 5775 5775 5775 5775 5775 5775 5776 5776 5776 5776 5776 5776 5776 5777 5778 5778 5779 5780 5781 5782 5783 5784 5784 5785 5786 5788 5789 5790 5790 5791 5793 5794 5794 5796 5796 5797 5798 5799 5800 5801 5802 5804 5805 5806
5764 5763 5764 5764 5764 5764 5765 5765 5766 5766 5767 5767 5768 5768 5769 5769 5770 5770 5770 5770 5770 5771 5771 5770 5770 5770 5769 5768 5769 5769 5769 5770 5770 5770 5770 5771 5771 5772 5772 5772 5772 5772 5772 5772 5773 5773 5773 5773 5773 5773 5773 5773 5773 5773 5774 5775 5776 5776 5777 5778 5779 5780 5781 5781 5782 5782 5783 5784 5786 5786 5787 5789 5790 5791 5792 5793 5793 5794 5795 5796 5797 5799 5800 5801 5803
5763 5763 5762 5762 5762 5762 5763 5763 5764 5764 5764 5765 5765 5766 5766 5767 5767 5767 5768 5768 5768 5768 5768 5768 5768 5768 5767 5766 5766 5767 5767 5767 5767 5768 5768 5768 5769 5770 5770 5770 5769 5769 5769 5769 5770 5770 5770 5770 5770 5770 5770 5770 5770 5771 5772 5772 5773 5774 5774 5775 5775 5776 5778 5778 5778 5778 5779 5780 5781 5783 5784 5784 5785 5786 5787 5789 5790 5790 5791 5792 5793 5795 5796 5797 5799
5761 5761 5761 5761 5761 5761 5761 5761 5762 5762 5762 5763 5763 5763 5764 5764 5764 5765 5765 5765 5765 5765 5765 5765 5765 5766 5765 5765 5764 5764 5764 5765 5765 5765 5765 5766 5766 5766 5767 5767 5767 5766 5766 5766 5767 5767 5767 5767 5767 5767 5767 5767 5768 5768 5769 5769 5770 5771 5771 5771 5771 5772 5774 5775 5775 5775 5775 5776 5778 5779 5780 5780 5781 5782 5783 5786 5787 5787 5788 5789 5790 5790 5792 5794 5795
5759 5759 5760 5760 5760 5759 5759 5759 5759 5760 5760 5760 5761 5761 5761 5762 5762 5762 5762 5762 5762 5762 5762 5763 5763 5763 5763 5763 5763 5762 5762 5762 5762 5762 5763 5763 5763 5763 5764 5764 5764 5764 5763 5764 5764 5764 5764 5764 5764 5764 5764 5764 5765 5766 5766 5767 5767 5768 5768 5768 5768 5769 5771 5772 5772 5771 5772 5773 5774 5776 5777 5778 5779 5779 5781 5783 5783 5783 5784 5786 5787 5787 5789 5790 5791
5757 5757 5757 5757 5757 5757 5757 5757 5757 5757 5758 5758 5758 5759 5759 5759 5760 5760 5760 5760 5760 5760 5760 5760 5761 5761 5761 5761 5761 5761 5760 5760 5760 5760 5760 5760 5760 5761 5761 5761 5761 5761 5760 5761 5761 5761 5761 5761 5761 5761 5762 5762 5763 5763 5764 5764 5764 5765 5766 5766 5766 5766 5768 5769 5768 5768 5768 5770 5771 5773 5774 5775 5775 5776 5777 5778 5779 5779 5780 5782 5783 5784 5786 5786 5787
5755 5755 5755 5755 5755 5755 5755 5755 5755 5755 5755 5756 5756 5757 5757 5757 5758 5758 5758 5758 5758 5758 5758 5759 5759 5759 5759 5760 5759 5759 5759 5759 5759 5758 5758 5758 5758 5758 5758 5758 5758 5758 5758 5758 5758 5758 5758 5759 5759 5759 5759 5760 5760 5761 5761 5762 5762 5763 5763 5763 5763 5764 5764 5765 5765 5765 5766 5766 5767 5769 5770 5770 5771 5772 5773 5774 5776 5776 5777 5778 5779 5780 5782 5781 5781
5753 5753 5753 5753 5753 5753 5753 5753 5753 5753 5754 5754 5754 5755 5755 5755 5756 5756 5756 5757 5757 5757 5757 5757 5757 5757 5758 5758 5758 5758 5758 5758 5757 5757 5757 5756 5756 5756 5756 5756 5756 5755 5755 5755 5755 5755 5755 5756 5756 5756 5756 5757 5757 5758 5758 5759 5760 5760 5760 5760 5760 5761 5761 5762 5762 5762 5763 5763 5764 5765 5766 5767 5767 5768 5769 5771 5772 5773 5773 5774 5775 5777 5778 5778 5778
5750 5750 5751 5751 5751 5751 5751 5751 5751 5751 5751 5752 5752 5753 5753 5754 5754 5754 5754 5755 5755 5755 5755 5755 5755 5755 5756 5756 5756 5756 5757 5756 5756 5756 5755 5755 5754 5754 5754 5754 5754 5754 5753 5753 5753 5753 5753 5753 5753 5754 5754 5754 5754 5755 5755 5756 5757 5757 5757 5757 5758 5758 5759 5759 5760 5760 5760 5760 5761 5762 5763 5764 5764 5765 5765 5766 5768 5769 5770 5771 5771 5773 5775 5775 5775
5748 5748 5748 5748 5748 5749 5749 5749 5749 5750 5750 5750 5750 5751 5751 5752 5752 5752 5752 5753 5753 5753 5753 5753 5754 5754 5754 5754 5754 5754 5755 5755 5755 5755 5755 5754 5754 5753 5753 5753 5752 5752 5752 5752 5752 5752 5751 5751 5751 5751 5751 5752 5752 5752 5753 5753 5754 5754 5754 5755 5755 5756 5756 5757 5757 5757 5757 5757 5758 5759 5760 5760 5761 5761 5762 5762 5763 5764 5766 5767 5767 5768 5770 5771 5771
5745 5745 5745 5746 5746 5747 5747 5747 5748 5748 5748 5748 5749 5749 5750 5750 5750 5751 5751 5751 5751 5752 5752 5752 5752 5752 5752 5752 5752 5753 5753 5753 5754 5754 5754 5753 5753 5752 5752 5752 5751 5751 5751 5751 5751 5751 5751 5750 5750 5750 5750 5750 5750 5750 5751 5751 5752 5752 5752 5752 5752 5753 5753 5754 5754 5754 5754 5754 5755 5756 5757 5757 5758 5758 5759 5759 5759 5760 5761 5762 5763 5764 5765 5766 5766
5743 5743 5743 5744 5744 5745 5745 5745 5746 5746 5746 5747 5747 5747 5748 5748 5748 5749 5749 5750 5750 5750 5750 5750 5750 5750 5750 5750 5751 5751 5751 5752 5752 5752 5752 5752 5752 5751 5751 5750 5750 5750 5750 5750 5750 5750 5750 5749 5749 5749 5749 5749 5749 5749 5749 5750 5750 5750 5750 5751 5751 5751 5751 5751 5751 5751 5751 5751 5752 5752 5753 5753 5754 5754 5755 5755 5756 5756 5756 5757 5758 5759 5760 5760 5761
5741 5741 5741 5741 5742 5743 5743 5743 5744 5744 5744 5744 5745 5745 5745 5746 5746 5746 5747 5747 5748 5748 5748 5749 5749 5749 5749 5749 5749 5749 5749 5750 5750 5750 5751 5751 5751 5750 5750 5749 5749 5749 5749 5749 5749 5749 5749 5748 5748 5748 5748 5748 5748 5748 5748 5748 5748 5748 5749 5749 5749 5749 5749 5749 5749 5749 5749 5749 5749 5749 5750 5750 5750 5750 5750 5751 5751 5752 5752 5752 5752 5753 5754 5755 5756
5739 5739 5739 5739 5739 5740 5740 5741 5741 5741 5742 5742 5742 5743 5743 5743 5744 5744 5744 5745 5745 5746 5746 5746 5747 5747 5747 5747 5747 5747 5747 5747 5748 5748 5749 5749 5749 5749 5749 5748 5748 5748 5747 5747 5747 5747 5747 5747 5747 5747 5747 5746 5746 5746 5746 5746 5746 5746 5746 5746 5747 5747 5747 5747 5746 5746 5746 5746 5746 5746 5747 5747 5747 5747 5747 5747 5747 5748 5748 5748 5748 5748 5748 5749 5750
5736 5736 5736 5736 5736 5737 5737 5738 5738 5739 5739 5739 5740 5740 5740 5741 5741 5742 5742 5742 5743 5743 5744 5744 5744 5745 5745 5745 5745 5746 5745 5746 5746 5746 5747 5747 5747 5747 5747 5747 5747 5747 5746 5746 5745 5745 5745 5745 5745 5745 5745 5744 5744 5744 5744 5744 5744 5744 5744 5744 5744 5744 5744 5744 5744 5744 5744 5744 5744 5744 5744 5744 5744 5744 5744 5744 5745 5745 5745 5744 5744 5744 5744 5744 5745
5733 5734 5734 5734 5734 5734 5735 5735 5736 5736 5737 5737 5737 5738 5738 5738 5739 5739 5740 5740 5741 5741 5741 5742 5742 5742 5743 5743 5743 5743 5744 5744 5744 5744 5744 5745 5745 5745 5746 5746 5746 5746 5745 5745 5744 5744 5744 5744 5743 5743 5743 5743 5742 5742 5741 5741 5741 5741 5741 5741 5741 5741 5741 5741 5741 5741 5741 5741 5741 5741 5741 5741 5741 5741 5742 5742 5742 5742 5742 5742 5741 5741 5741 5741 5741
5731 5731 5731 5732 5732 5732 5733 5733 5734 5735 5735 5735 5735 5735 5735 5736 5736 5737 5738 5738 5739 5739 5739 5739 5740 5740 5740 5740 5741 5741 5741 5742 5742 5742 5742 5742 5743 5743 5743 5744 5744 5744 5744 5743 5743 5743 5743 5743 5742 5742 5742 5741 5741 5740 5740 5739 5739 5739 5739 5739 5738 5738 5738 5738 5738 5738 5738 5738 5738 5738 5738 5738 5738 5738 5738 5738 5738 5739 5739 5738 5738 5738 5738 5737 5737
5728 5729 5729 5730 5730 5730 5731 5731 5732 5733 5733 5733 5733 5733 5733 5733 5734 5734 5735 5735 5736 5736 5737 5737 5737 5738 5738 5738 5738 5738 5739 5739 5739 5739 5740 5740 5740 5740 5741 5741 5741 5741 5741 5741 5741 5741 5741 5741 5741 5740 5740 5740 5739 5738 5738 5737 5737 5736 5736 5736 5736 5735 5735 5735 5735 5735 5735 5735 5735 5734 5734 5734 5734 5734 5734 5735 5735 5735 5735 5735 5735 5735 5735 5735 5734
5725 5725 5726 5727 5727 5727 5728 5729 5729 5729 5730 5731 5731 5731 5731 5731 5731 5731 5731 5732 5732 5733 5734 5734 5735 5735 5735 5735 5735 5735 5735 5736 5736 5736 5737 5737 5737 5737 5738 5738 5738 5739 5739 5739 5739 5738 5738 5738 5738 5738 5738 5737 5737 5736 5735 5734 5734 5733 5733 5733 5733 5732 5732 5732 5732 5732 5732 5732 5731 5731 5731 5731 5731 5731 5731 5731 5731 5731 5731 5731 5731 5731 5731 5731 5731
5722 5722 5722 5723 5724 5724 5725 5726 5726 5726 5726 5727 5727 5728 5728 5728 5728 5728 5728 5729 5729 5730 5730 5731 5732 5732 5732 5732 5732 5732 5732 5733 5733 5734 5734 5734 5734 5734 5734 5735 5735 5735 5735 5736 5736 5736 5735 5735 5734 5734 5734 5734 5734 5734 5733 5732 5731 5730 5730 5729 5729 5729 5728 5728 5728 5728 5728 5728 5728 5728 5727 5727 5727 5727 5727 5727 5727 5727 5727 5727 5727 5727 5727 5727 5727
5719 5719 5720 5720 5721 5721 5722 5722 5722 5722 5723 5724 5724 5724 5725 5725 5726 5726 5726 5726 5726 5726 5727 5728 5728 5729 5729 5729 5729 5729 5730 5730 5731 5731 5731 5731 5731 5731 5731 5732 5732 5732 5732 5732 5732 5732 5732 5732 5731 5731 5731 5731 5731 5730 5730 5729 5729 5728 5727 5725 5725 5724 5724 5724 5724 5724 5724 5724 5724 5724 5723 5723 5723 5723 5723 5723 5723 5723 5723 5723 5723 5723 5722 5722 5722
5717 5717 5717 5718 5718 5718 5719 5719 5719 5719 5720 5720 5720 5721 5721 5722 5723 5723 5723 5723 5723 5723 5723 5724 5725 5725 5726 5726 5726 5726 5726 5727 5727 5728 5728 5728 5728 5728 5728 5728 5728 5728 5728 5728 5728 5728 5728 5728 5728 5728 5727 5727 5727 5727 5726 5726 5725 5725 5724 5723 5722 5721 5720 5719 5719 5719 5719 5719 5719 5719 5718 5718 5718 5718 5718 5718 5718 5718 5719 5719 5719 5719 5718 5718 5717
5714 5715 5715 5715 5715 5716 5717 5717 5718 5718 5716 5715 5716 5717 5717 5718 5718 5719 5719 5719 5719 5720 5720 5720 5720 5721 5721 5722 5722 5722 5723 5723 5723 5724 5724 5724 5723 5723 5724 5724 5724 5724 5724 5724 5724 5724 5724 5724 5724 5724 5723 5723 5722 5722 5722 5721 5721 5720 5720 5719 5718 5717 5716 5715 5714 5713 5713 5714 5714 5713 5712 5712 5712 5712 5712 5713 5713 5713 5714 5714 5714 5714 5713 5713 5713
5711 5712 5712 5711 5711 5712 5712 5713 5714 5713 5711 5711 5712 5712 5713 5713 5714 5714 5714 5715 5715 5716 5716 5716 5716 5716 5717 5717 5718 5718 5718 5719 5719 5719 5719 5719 5719 5719 5719 5719 5719 5719 5719 5719 5719 5718 5719 5719 5719 5718 5718 5717 5716 5716 5716 5716 5715 5714 5714 5713 5713 5712 5712 5711 5710 5708 5707 5708 5709 5708 5706 5706 5706 5707 5706 5706 5707 5707 5707 5708 5708 5708 5708 5708 5707
5708 5708 5708 5707 5707 5707 5707 5707 5707 5707 5707 5708 5709 5709 5709 5709 5710 5710 5711 5711 5712 5712 5712 5713 5713 5713 5713 5713 5714 5714 5714 5714 5714 5714 5714 5714 5714 5714 5714 5713 5713 5713 5714 5713 5713 5712 5712 5713 5712 5711 5711 5710 5710 5709 5709 5709 5709 5708 5707 5707 5707 5706 5706 5706 5705 5703 5701 5702 5703 5703 5701 5699 5700 5701 5700 5700 5700 5700 5700 5700 5701 5701 5701 5701 5702
5703 5703 5703 5703 5702 5702 5702 5702 5702 5702 5702 5703 5704 5706 5706 5706 5706 5706 5707 5707 5708 5708 5709 5709 5709 5709 5709 5709 5709 5709 5709 5709 5709 5709 5708 5708 5708 5708 5708 5707 5708 5707 5707 5707 5706 5706 5706 5706 5705 5704 5703 5703 5703 5702 5702 5702 5701 5701 5700 5700 5700 5700 5699 5699 5699 5698 5696 5695 5696 5697 5696 5694 5693 5695 5694 5693 5694 5693 5693 5693 5693 5693 5694 5694 5695
5697 5698 5698 5698 5698 5697 5697 5697 5697 5697 5698 5698 5699 5700 5701 5702 5702 5702 5703 5703 5704 5704 5705 5705 5705 5705 5705 5705 5704 5704 5703 5703 5703 5702 5702 5702 5702 5701 5701 5701 5701 5700 5700 5700 5700 5700 5700 5699 5698 5697 5696 5696 5695 5695 5695 5694 5694 5693 5693 5692 5692 5692 5692 5691 5691 5690 5689 5688 5688 5689 5690 5688 5687 5688 5688 5687 5687 5686 5686 5686 5685 5686 5686 5687 5687
5693 5693 5693 5693 5693 5693 5692 5692 5692 5692 5692 5693 5694 5694 5695 5696 5697 5698 5699 5699 5699 5700 5700 5700 5700 5700 5700 5699 5699 5698 5697 5697 5696 5696 5695 5695 5694 5694 5694 5693 5693 5692 5692 5692 5692 5693 5692 5692 5690 5689 5689 5688 5688 5687 5687 5687 5686 5686 5685 5685 5684 5684 5684 5683 5683 5682 5681 5680 5680 5681 5682 5681 5680 5681 5681 5680 5679 5679 5679 5678 5678 5678 5678 5678 5679
5687 5688 5688 5688 5688 5688 5688 5687 5687 5687 5687 5688 5689 5690 5691 5691 5692 5693 5694 5694 5694 5694 5694 5694 5694 5694 5694 5693 5693 5692 5691 5691 5691 5690 5689 5688 5688 5687 5686 5686 5685 5685 5684 5684 5684 5684 5684 5684 5683 5682 5682 5681 5680 5679 5679 5679 5678 5678 5677 5676 5675 5675 5675 5675 5674 5673 5672 5672 5671 5672 5674 5674 5673 5673 5674 5672 5672 5672 5671 5670 5670 5670 5670 5670 5671
5682 5682 5683 5683 5683 5683 5683 5683 5683 5683 5683 5683 5684 5685 5686 5686 5687 5687 5687 5688 5688 5688 5688 5688 5688 5687 5687 5687 5686 5686 5686 5685 5685 5684 5683 5682 5681 5681 5680 5679 5679 5678 5677 5677 5676 5676 5676 5676 5675 5674 5673 5673 5671 5670 5670 5669 5669 5668 5667 5667 5666 5666 5666 5666 5666 5665 5664 5663 5662 5661 5663 5665 5664 5665 5665 5664 5663 5664 5663 5662 5661 5662 5662 5662 5663
5676 5676 5676 5677 5677 5678 5678 5678 5678 5678 5678 5679 5679 5680 5680 5680 5681 5681 5681 5681 5681 5681 5681 5681 5681 5681 5681 5681 5680 5680 5679 5679 5678 5678 5677 5676 5675 5674 5673 5673 5672 5671 5670 5669 5669 5668 5668 5667 5666 5665 5664 5663 5662 5661 5660 5660 5659 5658 5657 5657 5656 5655 5656 5656 5657 5656 5655 5654 5652 5651 5653 5655 5654 5655 5656 5656 5655 5654 5654 5653 5653 5653 5653 5653 5654
5669 5669 5670 5670 5670 5671 5672 5672 5672 5673 5673 5673 5673 5674 5674 5674 5674 5674 5674 5674 5675 5675 5675 5675 5675 5675 5675 5674 5674 5673 5673 5672 5672 5671 5670 5670 5668 5667 5666 5665 5665 5664 5663 5662 5661 5660 5660 5659 5658 5657 5656 5655 5653 5652 5651 5650 5648 5648 5647 5646 5645 5645 5645 5645 5646 5646 5646 5646 5643 5641 5643 5645 5644 5644 5645 5646 5646 5645 5644 5644 5644 5644 5644 5644 5645
5662 5663 5663 5663 5663 5664 5665 5665 5666 5666 5666 5666 5667 5667 5667 5667 5667 5667 5668 5668 5668 5669 5669 5669 5669 5669 5669 5668 5668 5667 5666 5665 5665 5664 5663 5663 5662 5661 5659 5658 5658 5657 5656 5655 5654 5653 5652 5651 5650 5649 5648 5646 5645 5643 5642 5640 5638 5637 5636 5636 5635 5634 5635 5635 5635 5635 5636 5636 5633 5631 5633 5635 5634 5633 5634 5634 5636 5637 5635 5634 5634 5634 5634 5634 5635